Погода в Новопокровке

Россия / Республика Крым     45°25′18″N   34°26′53″E
темп.,
°C
ветер,
м/с
пор.,
м/с
влажн.,
%
обл.,
%
осадки,
мм/ч
давл.,
гПа
погр.,
м
6 мая, чт
чт600:00+8вюв485979 0.0 1013134
03:00+7юв33615 0.0 101225
06:00+8юв2262100 0.0 101123
09:00+15юв224094 0.0 1011308
12:00+21сз112997 0.0 10111163
15:00+22зсз33296 0.0 10111975
18:00+18с575131 0.0 1012678
21:00+12зсз34584 0.0 101445
7 мая, пт
пт700:00+10з336454 0.0 101527
03:00+9зсз33655 0.0 101625
06:00+9зюз22685 0.0 101612
09:00+16вюв1148100 0.0 1017442
12:00+21вюв11395 0.0 10161231
15:00+23юв1338100 0.0 10151952
18:00+20ююв124942 0.0 1014742
21:00+14зюз3367100 0.0 101526
8 мая, сб
сб800:00+13юв3368100 0.0 101329
03:00+12ю2262100 0.0 101215
06:00+12ююв1165100 0.0 101111
09:00+18вюв225734 0.0 1011300
12:00+24ссз22395 0.0 10111296
15:00+22с865136 0.0 10101118
18:00+16ссз91174100 0.0 1012765
21:00+12ссз71282100 0.4 1015863
9 мая, вс
вс900:00+10ссз51092100 1.7 1016802
03:00+9ссз61179100 5.0 1017922
06:00+8сз59835 0.0 1020383
09:00+11ссз811521 0.0 10221290
12:00+14ссз79425 0.0 10241985
15:00+16ссз783698 0.0 10242831
18:00+15сз584471 0.0 10252527
21:00+9зсз49695 0.1 1027174
10 мая, пн
пн1000:00+8з337860 0.0 102746
03:00+7з227912 0.0 102722
06:00+7зсз22805 0.0 102730
09:00+14с46502 0.0 10271445
12:00+16с57375 0.0 10262205
15:00+17с67355 0.0 10242178
18:00+16ссз57445 0.0 10232054
21:00+12сз41051100 0.0 1022311